COSMOS 2378

导读 | 星芒AI

COSMOS 2378 是俄罗斯于2007年发射的一颗军用通信卫星,由联盟号火箭从普列谢茨克航天发射场送入轨道。该卫星属于俄罗斯的军事通信系统,用于支持战略指挥与控制通信。其具体任务和工作细节未公开,属于高度机密。COSMOS 2378 与其他同系列卫星共同构成俄罗斯的军事通信网络,确保在各种作战环境下的通信可靠性。该卫星目前仍在轨道运行,是俄罗斯空间战略的重要组成部分。

基本信息
目录编号:
26818
目录名称:
COSMOS 2378
国际标识:
2001-023A
轨道中心:
EARTH
卫星名称:
COSMOS 2378
卫星全名:
--
卫星状态:
在轨 (已飞行8956 天)
发射日期:
2001-06-08 UTC
国别 :
俄罗斯(独联体) (CIS)
星等 :
--
轨道信息
数据来源 国际轨道数据 AOE轨道数据
星历时间 2025-12-14T15:57:15+0800
1天前
查看轨道信息
2025-12-13T01:00:00+0800
2天前
查看轨道信息
半长轴 7362.875km 7362.874km
偏心率 0.0032501 0.0032367
轨道倾角 82.927° 82.927°
近地点辐角 200.397° 204.688°
升交点赤经 358.545° 359.748°
平近点角 172.332° 63.276°
近地点 960.809km 960.907km
远地点 1008.671km 1008.571km
周期 104.793分钟 104.793分钟
每日圈数 13.741421 13.741425
详细信息
使用方式:
暂无
2D轨道图
3D轨道图
轨道高度分析图
轨道倾角分析图
轨道综合分析图
查看轨道综合分析图